Hourly Data Report for February 26, 2003

TORONTO CITY
ONTARIO

43°40'00.000" N
79°24'00.000" W
112.50 m
6158355
71508
XTO

Download Data

Hourly Data (February 2003)
Hourly Data Report for February 26, 2003
TIME
LST
Temp Definition
°C
Dew Point Definition
°C
Rel Hum Definition
%
Precip. Amount Definition
mm

Wind Dir Definition
10's deg

Wind Spd Definition
km/h
Visibility Definition
km
Stn Press Definition
kPa
Hmdx Definition


Wind Chill Definition


Weather Definition


00:00 -13.4 -18.8 64   LegendMM LegendMM LegendMM 101.59     LegendNANA
01:00 -13.6 -19.0 64   LegendMM LegendMM LegendMM 101.62     LegendNANA
02:00 -13.3 -18.6 64   LegendMM LegendMM LegendMM 101.58     LegendNANA
03:00 -13.5 -18.4 67   LegendMM LegendMM LegendMM 101.53     LegendNANA
04:00 -13.3 -18.8 63   LegendMM LegendMM LegendMM 101.52     LegendNANA
05:00 -13.2 -18.5 64   LegendMM LegendMM LegendMM 101.54     LegendNANA
06:00 -13.7 -19.0 64   LegendMM LegendMM LegendMM 101.52     LegendNANA
07:00 -13.4 -18.7 64   LegendMM LegendMM LegendMM 101.51     LegendNANA
08:00 -12.9 -17.7 67   LegendMM LegendMM LegendMM 101.48     LegendNANA
09:00
10:00 -9.0 -18.6 46   LegendMM LegendMM LegendMM 101.39     LegendNANA
11:00 -7.9 -17.8 45   LegendMM LegendMM LegendMM 101.37     LegendNANA
12:00 -6.3 -14.9 50   LegendMM LegendMM LegendMM 101.32     LegendNANA
13:00 -6.5 -15.1 50   LegendMM LegendMM LegendMM 101.21     LegendNANA
14:00 -6.1 -14.2 53   LegendMM LegendMM LegendMM 101.14     LegendNANA
15:00 -6.7 -12.7 62   LegendMM LegendMM LegendMM 101.07     LegendNANA
16:00 -6.5 -12.9 60   LegendMM LegendMM LegendMM 101.06     LegendNANA
17:00 -7.1 -12.6 65   LegendMM LegendMM LegendMM 101.04     LegendNANA
18:00 -7.4 -12.0 70   LegendMM LegendMM LegendMM 101.04     LegendNANA
19:00 -7.3 -11.9 70   LegendMM LegendMM LegendMM 101.03     LegendNANA
20:00 -7.4 -11.8 71   LegendMM LegendMM LegendMM 101.00     LegendNANA
21:00 -7.1 -11.6 70   LegendMM LegendMM LegendMM 100.98     LegendNANA
22:00 -7.5 -11.9 71   LegendMM LegendMM LegendMM 100.99     LegendNANA
23:00 -7.5 -12.1 70   LegendMM LegendMM LegendMM 100.94     LegendNANA

Notes on Data Quality.

Legend

  • E = Estimated
  • M = Missing
  • NA = Not Available*
  • [empty] = Indicates an unobserved value
Date modified: